Location: Prague
(50.0833°N, 14.4667°E)
Time: 21:41:37
(UTC+02:00)

ISS - Pass Details

Date: 30 May 2024
Orbit: 410 x 421 km, 51.6° (Epoch: 12 June)

Event Time Altitude Azimuth Distance (km) Brightness Sun altitude
Rises 19:53:55 0° 287° (WNW) 2,378 2.3 8.5°
Reaches altitude 10° 19:56:10 10° 277° (W) 1,508 0.8 8.1°
Maximum altitude 19:59:12 31° 213° (SSW) 760 -2.3 7.7°
Drops below altitude 10° 20:02:13 10° 149° (SSE) 1,495 -1.4 7.3°
Sets 20:04:26 0° 139° (SE) 2,353 -0.5 6.9°
